CBERS 1 DEB

Satellite information

Favourite Embed

Satellite Type and Status

DEBRISIN ORBIT

Key statistics

Satellite CBERS 1 DEB at a glance.

Uptime

9458

Days in orbit

Revolutions

≈ 14.6

Per day

Orbit

SSO

Sun Synchronous Orbit

Inclination

98.6

Latest

Satellite identification and parameters

Extended collection of information and parameters for CBERS 1 DEB.

Object identification

Identified? True

Debris? True

Object name: CBERS 1 DEB

International designator: 1999-057PA

Object number (NORAD): 30791

Object ID (CCSDS): 30791

Country: PEOPLES REPUBLIC OF CHINA/BRAZIL (CHBZ)

Current information (Y/N): Y

RCS size: SMALL

Orbital parameters

Period: 98.334 minutes

Inclination: 98.565 deg

SMA: 7057.168 km

Apoapsis: 683.597 km

Periapsis: 674.469 km

RAAN: 294.0242 deg

Eccentricy: 0.00064674

Argument of periapsis: 139.3157 deg

Mean anomaly: 280.195 deg

Mean motion: 14.64391084 rev/day

Mean motion (dot): 0.00008578 rev/day2

B* drag term: 0.0016303853 1/REarth

Two-line elements (TLE)

Creation date: Sept. 4, 2025, 10:13 a.m.

Reference frame: TEME

Reference center: EARTH

Epoch: Sept. 4, 2025, 2:58 a.m. UTC

TLE line 0: 0 CBERS 1 DEB

TLE line 1: 1 30791U 99057PA 25247.12397387 .00008578 00000-0 16304-2 0 9994

TLE line 2: 2 30791 98.5650 294.0242 0006467 139.3157 280.1950 14.64391084976658

Live tracking on map

Real-time ground track for satellite CBERS 1 DEB.

In-orbit conjunctions

A list of the most updated potential collisions computed for object CBERS 1 DEB.

Target Orbit TCA Probability of collision Miss distance Type
CZ-6A DEB LEO 2025-03-31 02:38:45 0.0001730422 52.0 (m) DEBRIS
CZ-6A DEB LEO 2024-12-23 04:08:09 0.0003323001 147.0 (m) DEBRIS
COSMOS 2251 DEB LEO 2024-08-13 16:59:41 0.0001436339 283.0 (m) DEBRIS

Associated space launch

The CBERS (China Brazil Earth Resources Satellite) or ZY 1 (Zi Yuan) satellites are designed for global coverage and include cameras to make optical observations and a data collecting system to gather data on the environment. They are unique systems due to the use of on-board sensors which combine features that are especially designed to resolve the broad range of space and time scales involved in the monitoring and preservation of the ecosystem. They are operated jointly by the China Centre for Resources Satellite Data and Application (CRESDA) and the Brazilian INPE (Instituto Nacional de Pesquisas Espaciais, National Institute of Space Research).

CBERS 1 DEB was lifted into orbit during the mission ‘Long March 4B | Zi Yuan 1-1’, on board a Long March 4B space rocket.

The launch took place on Oct. 14, 1999, 3:15 a.m. from Launch Complex 7.

For more information about the launch, click the button.

Launch to space Long March 4B | Zi Yuan 1-1
Long March 4B | Zi Yuan 1-1

Agency: N/A

Status: Launch Successful

Launch date: Oct. 14, 1999, 3:15 a.m. UTC

Rocket: Long March 4B

Launch pad: Launch Complex 7

Location: Taiyuan Satellite Launch Center, People's Republic of China

...

Latest news about this satellite

There are no fresh news available about this satellite. Check back as we update our databases every day.


Newsletter sign-up

Weekly statistics, charts and insights to help you stay on top of the space industry.